This is the latest recevied weather packets stored in our database for station/object KD8NVS-13. If no packets are shown the sender has not sent any weather packets the latest 10 day(s).
| Time | Temp. | Humidity | Pressure | Rain* | Wind** | Luminosity | Snow |
|---|---|---|---|---|---|---|---|
| 1777674411 | 9.44° C | 73% | 1004.9 hPa | 0 mm | - | 140 W/m² | - |
| 1777674109 | 10° C | 72% | 1004.9 hPa | 0 mm | - | 232 W/m² | - |
| 1777673804 | 9.44° C | 72% | 1004.9 hPa | 0 mm | - | 152 W/m² | - |
| 1777673496 | 10° C | 70% | 1004.9 hPa | 0 mm | - | 135 W/m² | - |
| 1777673194 | 9.44° C | 70% | 1004.9 hPa | 0 mm | - | 156 W/m² | - |
| 1777672891 | 8.89° C | 72% | 1004.9 hPa | 0 mm | - | 167 W/m² | - |
| 1777672588 | 8.89° C | 73% | 1004.9 hPa | 0 mm | - | 130 W/m² | - |
| 1777672288 | 8.89° C | 73% | 1005.2 hPa | 0 mm | - | 149 W/m² | - |
| 1777671983 | 8.89° C | 74% | 1005.2 hPa | 0 mm | - | 92 W/m² | - |
| 1777671679 | 8.89° C | 74% | 1004.9 hPa | 0 mm | - | 97 W/m² | - |
| 1777671376 | 8.89° C | 74% | 1004.9 hPa | 0 mm | - | 62 W/m² | - |
| 1777671072 | 8.89° C | 74% | 1004.5 hPa | 0 mm | - | 77 W/m² | - |
| 1777670769 | 8.89° C | 74% | 1004.9 hPa | 0 mm | - | 87 W/m² | - |
| 1777670465 | 8.89° C | 73% | 1004.5 hPa | 0 mm | - | 73 W/m² | - |
| 1777670162 | 8.89° C | 73% | 1004.5 hPa | 0 mm | - | 128 W/m² | - |
| 1777669860 | 9.44° C | 73% | 1004.2 hPa | 0 mm | - | 175 W/m² | - |
| 1777669556 | 8.89° C | 73% | 1004.2 hPa | 0 mm | - | 155 W/m² | - |
| 1777669253 | 8.89° C | 73% | 1003.8 hPa | 0 mm | - | 131 W/m² | - |
| 1777668950 | 9.44° C | 74% | 1003.8 hPa | 0 mm | - | 83 W/m² | - |
| 1777668647 | 9.44° C | 73% | 1003.8 hPa | 0 mm | - | 112 W/m² | - |
| 1777668343 | 9.44° C | 71% | 1003.8 hPa | 0 mm | - | 136 W/m² | - |
| 1777668040 | 9.44° C | 71% | 1003.8 hPa | 0 mm | - | 272 W/m² | - |
| 1777667736 | 9.44° C | 71% | 1003.5 hPa | 0 mm | - | 169 W/m² | - |
| 1777667434 | 9.44° C | 70% | 1003.5 hPa | 0 mm | - | 112 W/m² | - |
| 1777667131 | 10.56° C | 69% | 1003.5 hPa | 0 mm | - | 160 W/m² | - |
* Rain latest hour (hover to see other rain measurements)
** Current wind speed in m/s (hover to see current wind gust speed)